Theta_e
299 295 293 296 298 298 296 295 294 297 300 298 299 301 304 310 316 318 322 325 325 326 329 330 330 330 331 333 334 335 336 338 338 336 335 336 336 336 337 337 336 336 334 333
295 292 297 299 298 296 295 294 294 296 298 297 298 300 306 308 314 318 321 324 327 328 329 330 330 330 331 332 333 335 337 338 337 336 336 336 337 336 336 333 332 331 330 330
293 294 298 296 295 294 294 293 293 293 296 297 297 296 299 305 307 309 318 323 327 329 329 330 330 331 332 332 335 334 336 337 338 338 339 337 334 331 329 327 327 326 327 326
295 297 294 294 293 295 291 296 295 293 292 289 296 288 296 300 302 307 313 320 325 329 331 332 332 333 334 335 338 336 336 336 337 340 336 332 330 328 330 328 327 324 324 323
292 294 292 292 293 296 293 296 294 294 292 292 292 290 295 299 299 302 309 319 325 329 331 332 333 335 335 336 336 337 336 333 336 338 335 334 336 335 333 328 325 324 323 322
295 297 296 295 296 296 297 295 294 294 294 287 292 291 293 296 298 302 307 315 323 328 331 333 336 337 337 337 339 338 336 334 337 335 335 337 337 335 327 325 324 323 321 319
293 293 295 296 293 296 296 293 286 285 285 286 293 291 295 297 298 302 307 312 318 326 329 332 333 333 336 336 334 333 335 334 336 336 336 337 338 334 329 327 326 324 319 313
288 285 293 296 294 292 293 293 288 281 283 287 291 287 293 299 302 304 308 310 315 320 324 328 331 332 334 336 334 330 330 332 334 333 333 335 336 333 331 329 326 319 316 313
287 288 295 295 297 296 293 290 296 289 290 288 289 292 297 300 300 302 303 304 304 306 309 317 326 330 332 333 331 331 329 329 329 328 329 328 329 325 324 319 317 314 312 310
287 285 293 295 297 297 295 297 289 291 283 282 287 289 290 295 297 299 299 301 302 304 306 310 314 319 330 331 331 330 331 328 327 326 324 322 322 322 319 316 312 310 308 308
286 287 290 293 291 291 292 291 292 293 290 285 284 288 298 297 296 296 297 299 300 302 304 307 318 320 318 328 328 327 325 326 324 323 321 320 318 316 314 312 310 308 307 307
284 283 286 289 291 294 294 293 293 287 287 290 290 289 300 298 296 297 296 297 299 301 302 304 307 313 314 320 323 323 323 323 320 320 317 316 315 312 310 308 307 307 306 307
280 281 281 284 288 291 289 289 290 291 292 289 286 289 299 297 296 295 296 297 298 299 300 303 304 304 308 310 314 318 319 318 317 315 314 313 311 309 307 306 307 307 306 306
283 280 276 277 279 282 283 285 286 289 288 289 289 290 294 294 293 293 294 296 296 297 298 300 302 303 304 305 310 312 315 316 314 313 311 308 308 308 308 307 305 307 306 305
280 275 277 278 279 280 280 281 283 284 288 287 291 290 293 293 292 291 293 293 293 295 296 297 299 301 303 303 304 305 311 314 314 312 311 308 308 307 306 307 303 305 304 305
281 275 277 275 278 279 277 281 281 282 285 286 291 289 292 292 292 291 291 291 291 291 293 296 298 299 301 302 303 304 305 310 313 312 310 309 306 306 305 303 304 305 304 305
278 277 275 272 277 277 275 278 281 282 284 285 285 290 291 288 289 290 290 290 290 291 292 292 295 298 300 302 305 307 308 306 310 311 310 307 305 303 303 302 302 303 305 304
277 277 276 272 274 269 279 283 283 281 283 285 286 287 289 289 289 290 290 290 290 291 292 292 294 296 299 302 304 308 308 306 309 311 309 307 304 302 301 300 301 301 303 304
281 278 274 272 272 276 278 280 280 280 281 286 285 286 287 289 289 288 289 290 290 291 292 293 294 295 297 299 303 305 307 308 308 308 310 308 305 301 300 300 300 301 302 304
281 281 276 274 270 268 278 282 284 284 276 287 287 287 286 287 284 288 289 290 290 291 292 293 293 294 295 296 301 303 303 304 303 305 308 309 306 304 299 299 300 302 303 302
275 276 274 274 272 275 281 283 285 274 278 286 287 287 287 285 288 289 289 290 290 291 291 292 293 293 293 295 296 299 301 300 303 304 307 307 308 306 301 300 300 300 301 299
274 273 273 274 272 270 284 282 278 284 286 286 286 287 286 287 288 288 289 290 290 290 291 291 292 292 294 294 294 293 297 300 302 303 305 306 307 306 304 299 298 298 297 296
273 277 275 276 276 283 285 284 286 286 284 285 285 286 285 285 285 287 288 289 289 290 291 292 291 291 293 294 293 292 294 296 299 302 303 306 307 306 306 300 297 297 301 295
278 281 277 276 280 282 284 285 287 288 286 286 286 286 286 285 286 286 287 288 288 289 290 291 291 291 291 293 293 293 294 295 296 300 302 305 306 305 305 304 302 297 296 296
278 279 277 277 280 282 283 284 285 286 287 287 287 286 286 286 286 286 286 287 287 288 289 290 290 290 291 292 293 294 294 295 294 296 300 302 301 302 302 303 302 301 301 297
279 277 275 276 281 281 282 284 286 285 284 285 285 285 287 287 286 287 287 288 288 288 289 289 290 290 291 292 292 293 294 294 294 293 295 298 300 300 298 297 296 291 292 290
Wind_Speed
20 18 23 24 19 14 9 14 14 11 7 13 21 19 23 16 14 15 15 18 19 20 20 20 20 19 19 18 18 19 18 17 13 11 11 10 9 8 7 6 7 7 6 7
16 24 21 17 19 16 12 13 12 6 9 8 13 18 20 19 16 15 16 18 20 19 18 20 19 20 20 20 19 20 20 20 15 12 10 8 8 7 7 6 7 7 8 8
23 12 21 16 17 19 18 15 13 11 8 13 10 14 20 22 14 12 13 15 18 20 20 21 22 22 20 19 21 21 21 22 19 17 11 8 8 6 6 7 7 8 9 8
23 9 16 21 23 19 19 16 14 11 9 12 18 10 21 21 22 18 14 14 16 19 20 20 20 21 22 19 17 18 19 20 18 18 14 15 12 11 8 9 8 8 9 8
17 18 17 24 24 21 15 11 15 12 13 6 12 10 10 16 21 21 16 11 15 19 22 22 22 21 18 17 19 16 16 16 16 17 16 13 13 9 8 8 11 9 8 8
18 7 21 18 15 19 7 13 10 8 9 11 16 15 12 8 10 19 18 10 12 16 18 18 18 19 20 17 17 17 19 18 16 17 17 17 16 12 10 12 11 8 7 7
18 14 9 12 17 20 20 19 10 11 11 10 11 12 2 6 4 6 7 2 5 12 13 14 16 17 17 17 14 14 17 19 18 16 17 17 15 15 15 14 11 11 7 6
15 19 16 15 22 16 25 22 9 15 15 13 8 11 9 5 6 7 9 10 10 8 3 11 14 16 18 19 15 14 13 12 12 14 14 14 15 8 9 10 9 7 8 8
7 15 9 6 10 16 23 22 14 3 5 11 12 6 8 8 9 11 12 12 12 10 7 5 4 11 13 15 12 14 16 14 13 13 11 11 10 12 9 9 9 7 7 8
7 10 3 11 9 11 15 17 13 10 14 11 11 15 10 11 9 10 12 14 13 12 11 9 2 7 9 11 13 12 12 17 15 16 12 11 12 11 10 9 11 10 8 9
11 6 8 7 12 20 11 16 17 14 12 14 10 9 8 11 8 10 12 13 14 13 13 12 12 7 8 7 6 9 11 11 10 12 11 12 11 10 10 8 10 9 10 8
12 7 8 4 6 3 7 14 21 12 19 12 11 9 11 11 10 9 11 12 14 15 14 14 14 14 16 10 3 4 8 10 9 10 12 12 11 12 11 10 11 11 10 9
10 6 5 7 4 4 2 4 4 7 7 20 15 11 13 11 10 9 10 11 12 14 16 16 16 15 13 12 10 4 3 5 7 9 10 11 12 13 13 13 13 13 12 10
3 5 6 6 11 9 4 3 6 8 12 13 17 21 16 12 10 9 10 10 12 13 15 15 15 14 13 11 10 7 2 4 7 8 8 9 10 11 13 12 15 12 12 12
9 6 4 8 12 12 10 10 8 4 5 9 10 16 16 10 9 9 9 10 12 13 14 15 14 13 13 12 10 8 5 0 5 7 8 9 9 10 11 15 13 19 11 10
9 5 8 8 3 8 14 14 9 7 6 4 6 14 8 8 10 9 9 10 12 13 13 13 13 14 14 14 13 10 6 4 5 6 8 7 8 9 10 11 12 14 12 16
8 6 6 5 5 10 11 9 11 8 5 7 10 5 12 9 9 9 9 10 11 11 12 14 14 13 13 15 15 13 8 5 5 6 6 7 8 8 9 10 12 13 14 14
9 7 5 7 8 8 5 2 5 7 2 3 4 6 6 9 9 9 8 9 9 9 10 11 11 12 14 15 16 14 11 3 2 3 5 6 7 7 8 9 10 11 11 15
13 9 4 5 6 13 10 4 2 5 9 4 6 6 6 7 7 9 7 7 8 8 8 9 10 11 12 14 15 14 13 9 5 3 2 5 8 9 9 11 11 11 10 12
10 12 8 7 7 6 6 3 2 2 9 10 6 6 4 5 9 6 5 4 6 7 8 8 9 9 11 12 13 12 11 9 9 10 7 2 6 10 10 11 11 10 9 10
10 11 13 11 11 8 4 3 1 8 4 5 4 4 4 6 5 9 2 1 2 4 6 8 7 7 9 10 10 10 10 12 11 9 6 6 5 8 10 9 7 10 12 9
13 9 10 12 15 16 6 4 10 9 7 5 2 3 1 3 3 4 5 6 6 6 7 7 7 7 7 8 8 10 10 11 11 11 8 6 6 5 7 9 9 10 10 11
16 16 12 8 8 3 2 8 3 5 3 1 3 6 6 9 9 10 9 8 9 10 9 8 8 9 8 7 8 8 8 10 11 11 10 8 6 6 8 10 9 8 13 8
21 18 15 16 19 20 10 9 10 11 8 8 9 11 13 12 11 11 9 9 10 11 11 11 11 10 9 9 8 8 8 8 9 11 12 8 7 6 7 7 9 8 8 9
15 16 20 23 26 21 18 16 19 19 18 18 18 17 16 15 15 12 11 11 11 11 11 12 12 12 12 11 11 9 8 7 8 8 8 8 5 5 8 7 7 8 12 11
19 23 18 19 18 18 20 17 15 17 17 22 22 19 16 18 18 19 16 13 12 12 12 12 13 14 14 13 12 12 11 9 9 8 6 5 6 4 4 5 5 7 7 9
Wind_Direction
197 203 208 204 211 236 251 220 232 212 140 234 223 228 230 200 218 211 199 192 199 201 195 191 187 190 183 178 185 185 180 176 179 177 179 177 177 176 176 176 161 165 154 163
183 221 209 217 209 210 210 209 214 195 197 237 223 226 230 206 208 220 205 201 195 195 194 189 188 191 188 179 188 188 185 179 182 185 181 186 183 186 178 160 167 169 170 173
206 207 217 202 197 209 217 223 223 237 191 228 262 234 224 235 221 226 231 210 198 191 191 188 191 192 188 186 189 193 189 185 187 182 183 173 160 160 178 172 170 171 177 177
225 188 208 201 211 205 210 218 230 225 224 221 204 236 209 219 217 215 210 210 200 196 193 192 198 198 192 189 190 195 197 196 187 185 177 184 185 183 188 181 172 166 176 174
206 209 194 210 209 199 224 195 211 210 218 246 200 240 239 215 214 222 200 199 204 200 195 195 193 200 191 188 191 195 194 202 182 189 188 192 205 192 172 174 165 172 170 173
224 213 215 204 212 194 151 178 184 206 219 231 222 219 202 192 242 225 214 168 207 207 204 203 193 193 191 192 189 193 199 193 203 184 195 200 201 189 178 177 176 173 169 169
197 189 192 233 186 193 186 171 169 199 201 233 187 199 144 77 22 342 331 23 198 206 203 201 195 198 201 197 193 193 205 196 201 206 203 199 201 190 193 181 179 172 170 176
193 194 187 185 205 188 199 195 197 197 206 191 157 217 131 77 84 83 86 77 58 51 182 202 206 195 203 202 181 183 197 200 197 203 208 207 202 195 203 192 165 169 174 180
302 211 197 198 207 203 195 207 226 272 347 213 179 111 127 118 98 90 84 75 64 55 55 12 283 210 213 201 179 192 194 194 194 194 200 192 182 179 177 157 158 164 156 142
353 270 188 174 216 226 236 204 202 223 188 198 188 176 140 154 110 86 71 68 60 53 47 36 5 258 219 209 190 196 209 200 191 191 184 178 178 174 171 157 158 163 146 151
347 264 151 196 212 200 193 214 215 232 237 221 178 184 100 122 88 75 58 48 49 49 42 41 35 47 220 193 176 171 192 197 172 172 174 173 160 151 153 164 158 154 144 159
0 309 266 134 58 344 319 233 213 225 206 236 238 117 121 112 87 75 65 50 42 38 40 47 45 48 34 42 80 169 194 190 170 170 161 160 154 150 157 162 159 154 154 164
340 356 248 170 198 112 36 35 287 287 295 209 221 135 146 122 100 74 68 57 50 42 37 38 41 41 42 39 25 47 160 149 157 156 163 161 160 160 166 161 161 157 158 169
304 301 343 333 2 340 284 347 350 274 227 226 217 132 151 144 114 87 71 60 52 45 42 39 39 38 38 33 28 32 33 145 160 169 166 168 174 171 171 172 158 162 163 163
355 279 285 280 291 307 309 304 321 311 330 257 179 159 150 123 109 89 78 67 59 49 42 38 34 32 28 26 19 14 15 205 190 183 184 183 182 176 169 173 171 149 165 187
329 277 316 293 229 279 288 287 281 278 275 264 173 117 112 124 113 98 81 70 60 50 42 36 32 28 23 16 6 356 341 307 187 209 204 182 168 174 177 168 172 170 178 170
290 301 323 264 329 304 270 252 254 260 275 290 214 132 149 133 115 103 95 75 63 52 41 31 25 22 18 11 3 353 336 278 233 197 197 189 177 169 174 169 169 171 174 165
259 260 286 293 319 247 66 41 264 260 238 207 119 125 139 123 113 100 77 80 68 54 43 37 25 18 14 9 11 5 18 47 200 235 171 172 188 178 165 168 178 174 180 179
218 240 251 261 262 306 291 146 216 202 205 210 157 140 130 151 153 119 87 70 62 50 42 31 23 18 19 11 7 15 26 30 45 1 289 177 187 183 174 177 178 185 182 177
204 227 230 215 248 247 44 84 49 211 255 169 211 171 172 185 206 146 118 67 57 46 35 17 9 13 19 16 359 15 18 26 23 350 339 253 198 196 186 181 183 187 191 179
213 216 229 234 243 261 281 141 201 233 80 137 191 179 200 229 18 64 82 297 4 356 9 359 359 2 10 9 3 4 17 15 5 349 328 307 233 199 194 182 177 182 191 183
247 222 235 239 249 251 159 165 239 78 120 126 121 119 255 281 244 257 275 282 292 306 324 339 337 343 347 358 359 356 5 354 350 345 320 278 256 220 185 184 179 187 181 177
248 258 271 253 256 194 107 260 117 148 87 153 288 275 274 287 279 278 281 291 295 301 302 308 320 325 316 328 350 340 349 344 336 334 328 289 248 235 211 185 187 185 198 189
264 263 256 267 250 252 232 250 241 230 259 274 281 289 277 264 268 272 274 282 290 294 296 300 299 296 302 303 312 326 327 328 327 324 336 310 264 243 229 221 194 198 195 196
276 275 268 264 252 256 255 263 270 265 282 278 283 279 268 263 258 261 269 278 283 286 286 285 284 286 288 290 289 297 306 307 308 313 318 331 318 289 246 231 222 210 212 203
267 264 257 259 258 262 268 261 260 268 274 284 286 276 261 257 258 260 261 270 275 276 279 274 272 277 279 283 279 282 291 284 286 293 299 310 303 259 237 231 226 250 247 208